DECAYED

STARLINK-1507, 45748 (Decayed)

Orbit data source: Space-Track

STARLINK-1507, 45748 was a payload satellite owned by SpaceX/Seattle (US) in LEO that was launched on Sat, 13 Jun 2020 UTC via an FALCON 9 launch vehicle from the Air Force Eastern Test Range (AFETR). Payload-class satellites include a variety of spacecraft equipped with specific instruments for various scientific and technological missions. These include communications satellites like Starlink; space stations such as the ISS; scientific satellites like the Hubble; Earth observation satellites from companies like Planet Labs, Umbra, and HawkEye 360; GPS; miniature CubeSats for education and research; and military/defense satellites.

Not visible in the next 10 days
Identifier
45748, 2020-038U
Orbit
Decayed
Country
Flag of USUS
Related business
Manufacturer
SpaceX/Seattle
Mission
Decayed Commercial Communications
Bus & Motor
STARLINK, Unknown motor
Mass
260 kg wet, ~248 kg dry
Launch date (UTC)
2020-06-13 (5 years ago)
Launch vehicle
FALCON 9
Launch site
Air Force Eastern Test Range (AFETR)
Object type
Payload
Rocket body
Debris
Shape & HBR
Box + 1 Pan, 10.1 m
Radar Cross Section
13.562 m², Large (>1 m²)

Expand to show TLE details & history
Last TLE update: 6 months ago

TLE from 6 months ago
0 STARLINK-1507
1 45748U 20038U   25167.19488686  .19084431  12657-4  27244-3 0  9999
2 45748  53.0115 245.6393 0006955 299.2053 151.2432 16.48463699278463
Epoch: 2025-06-16T04:40Z
TLE epoch observation values (Epoch: 2025-06-16T04:40:38.224Z)
Latitude
53.16783°
Longitude
1.58088°
Altitude
153.827 km
Speed
7.818 km/s
True Right ascension
22h 25m 47s
True Declination
52° 59' 15"
Sunlit
Object was in daylight at epoch
Visualization orbit readout
Latitude
Unknown
Longitude
Unknown
Altitude
Unknown
Speed
Unknown
Apparent Right ascension
Unknown
Apparent Declination
Unknown
Sunlit
N/A
Visualization observer readout
Local Sidereal Time
19:45:50
Azimuth
Unknown
Elevation
Unknown
Doppler factor
Unknown
Orbital elements
Apogee altitude
148.214 km
Perigee altitude
139.143 km
Semi-major axis
6,521.816 km
Eccentricity
0.0007
Inclination
53.0115°
RAAN
245.6393°
Arg. of periapsis
299.2053°
True anomaly
151.28151°
Mean anomaly
151.2432°
Eccentric anomaly
151.26236°
Mean motion
4.12088 °/min
Orbital period
87.36 mins
BSTAR
0.00027244
Loading maneuver chart data...
Computing Atmospheric mass density...

Documentation

Showing up to 5 results
|